Valladolid Airport, Spain

2:45 AM CET on February 10, 2016 (GMT +0100)
Villanubla

Weather History for LEVD - November, 2012

Change the Weather History Date:

Wednesday, November 28, 2012

  Actual Average Record
Temperature  
Mean Temperature 38 °F -  
Max Temperature 46 °F - - ()
Min Temperature 30 °F - - ()
Degree Days  
Heating Degree Days 27    
Moisture  
Dew Point 33 °F    
Average Humidity 84    
Maximum Humidity 100    
Minimum Humidity 66    
Precipitation  
Precipitation 0.00 in - - ()
Sea Level Pressure  
Sea Level Pressure 29.84 in    
Wind  
Wind Speed 11 mph ()    
Max Wind Speed 21 mph    
Max Gust Speed -    
Visibility 6.2 miles    
Events      
T = Trace of Precipitation, MM = Missing Value Source: Averaged Metar Reports

Daily Weather History Graph

Daily Weather History Graph

Search for Another Location

Airport or City:

Trip Planner

Search our weather history database for the weather conditions in past years. The results will help you decide how hot, cold, wet, or windy it might be!

Date:

Astronomy

Nov. 28, 2012 Rise Set
Actual Time 8:24 AM CET 5:50 PM CET
Civil Twilight 7:53 AM CET 6:21 PM CET
Nautical Twilight 7:18 AM CET 6:55 PM CET
Astronomical Twilight 6:45 AM CET 7:29 PM CET
Moon 5:54 PM CET (11/28) 8:09 AM CET (11/28)
Length of Visible Light 10h 28m
Length of Day
9h 26m
Full, 100% of the Moon is Illuminated
Nov 28
Full
Nov 28
Full
Dec 6
Last Quarter
Dec 13
New
Dec 20
First Quarter

Hourly Weather History & Observations

Time (CET) Temp. Windchill Dew Point Humidity Pressure Visibility Wind Dir Wind Speed Gust Speed Precip Events Conditions
6:00 AM 30.2 °F 21.9 °F 28.4 °F 93% 29.80 in - WNW 9.2 mph - N/A   Clear
6:30 AM 30.2 °F 22.6 °F 28.4 °F 93% 29.80 in - West 8.1 mph - N/A   Clear
7:00 AM 32.0 °F 24.2 °F 28.4 °F 87% 29.77 in - WNW 9.2 mph - N/A   Clear
7:30 AM 30.2 °F 21.9 °F 28.4 °F 93% 29.80 in - WNW 9.2 mph - N/A   Clear
8:00 AM 30.2 °F 20.8 °F 28.4 °F 93% 29.80 in - West 11.5 mph - N/A   Clear
9:00 AM 30.2 °F 21.3 °F 26.6 °F 86% 29.80 in 6.2 mi West 10.4 mph - N/A   Scattered Clouds
9:30 AM 30.2 °F 21.9 °F 28.4 °F 93% 29.83 in 6.2 mi WSW 9.2 mph - N/A   Scattered Clouds
10:00 AM 33.8 °F 27.0 °F 30.2 °F 87% 29.83 in 6.2 mi West 8.1 mph - N/A   Scattered Clouds
10:30 AM 35.6 °F 29.2 °F 33.8 °F 93% 29.83 in 6.2 mi West 8.1 mph - N/A   Partly Cloudy
11:00 AM 39.2 °F 30.5 °F 33.8 °F 81% 29.83 in 6.2 mi NW 16.1 mph - N/A   Partly Cloudy
11:30 AM 39.2 °F 29.8 °F 35.6 °F 87% 29.83 in 6.2 mi NW 18.4 mph - N/A   Partly Cloudy
12:00 PM 41.0 °F 32.2 °F 35.6 °F 81% 29.83 in 6.2 mi NW 18.4 mph - N/A   Partly Cloudy
12:30 PM 42.8 °F 34.5 °F 37.4 °F 81% 29.83 in 6.2 mi NW 18.4 mph - N/A   Scattered Clouds
1:00 PM 44.6 °F 36.6 °F 37.4 °F 76% 29.83 in 6.2 mi NNW 19.6 mph - N/A   Mostly Cloudy
1:30 PM 44.6 °F 36.9 °F 37.4 °F 76% 29.83 in 6.2 mi NNW 18.4 mph - N/A   Mostly Cloudy
2:00 PM 44.6 °F 36.6 °F 35.6 °F 71% 29.83 in 6.2 mi NNW 19.6 mph - N/A   Mostly Cloudy
2:30 PM 46.4 °F 39.0 °F 35.6 °F 66% 29.83 in 6.2 mi NNW 19.6 mph - N/A   Mostly Cloudy
3:00 PM 44.6 °F 36.9 °F 35.6 °F 71% 29.83 in 6.2 mi NNW 18.4 mph - N/A   Mostly Cloudy
3:30 PM 44.6 °F 36.4 °F 35.6 °F 71% 29.83 in 6.2 mi NNW 20.7 mph - N/A   Mostly Cloudy
4:00 PM 44.6 °F 36.9 °F 35.6 °F 71% 29.83 in 6.2 mi NNW 18.4 mph - N/A   Mostly Cloudy
4:30 PM 44.6 °F 37.2 °F 33.8 °F 66% 29.83 in 6.2 mi North 17.3 mph - N/A   Mostly Cloudy
5:00 PM 42.8 °F 35.8 °F 35.6 °F 76% 29.83 in 6.2 mi North 13.8 mph - N/A   Mostly Cloudy
5:30 PM 41.0 °F 33.5 °F 35.6 °F 81% 29.83 in 6.2 mi NNW 13.8 mph - N/A   Mostly Cloudy
6:00 PM 39.2 °F 30.8 °F 33.8 °F 81% 29.86 in 6.2 mi NNW 15.0 mph - N/A   Mostly Cloudy
6:30 PM 39.2 °F 30.8 °F 33.8 °F 81% 29.86 in 6.2 mi NNW 15.0 mph - N/A   Mostly Cloudy
7:00 PM 37.4 °F 29.3 °F 33.8 °F 87% 29.86 in 6.2 mi NNW 12.7 mph - N/A   Partly Cloudy
7:30 PM 37.4 °F 28.9 °F 33.8 °F 87% 29.89 in 6.2 mi NNW 13.8 mph - N/A   Partly Cloudy
8:00 PM 35.6 °F 27.5 °F 33.8 °F 93% 29.89 in 6.2 mi NNW 11.5 mph - N/A   Partly Cloudy
8:30 PM 35.6 °F 26.6 °F 33.8 °F 93% 29.89 in 6.2 mi NNW 13.8 mph - N/A   Partly Cloudy
9:00 PM 33.8 °F 25.8 °F 33.8 °F 100% 29.89 in 6.2 mi NNW 10.4 mph - N/A   Partly Cloudy
9:30 PM 33.8 °F 26.4 °F 33.8 °F 100% 29.89 in 6.2 mi North 9.2 mph - N/A   Scattered Clouds
10:00 PM 33.8 °F 27.0 °F 33.8 °F 100% 29.92 in 6.2 mi North 8.1 mph - N/A   Scattered Clouds
10:30 PM 33.8 °F 25.8 °F 32.0 °F 93% 29.92 in 6.2 mi NNW 10.4 mph - N/A   Scattered Clouds